Alvadore, OR

6:57 PM PST on February 13, 2016 (GMT -0800)
Mahlon Sweet

Weather History for KEUG - February, 2012

Change the Weather History Date:

Wednesday, February 15, 2012

  Actual Average Record
Temperature  
Mean Temperature 39 °F 43 °F  
Max Temperature 48 °F 51 °F 68 °F (1916)
Min Temperature 29 °F 35 °F 18 °F (1936)
Degree Days  
Heating Degree Days 26 22  
Month to date heating degree days 350 340  
Since 1 July heating degree days 2955 3050  
Cooling Degree Days 0 0  
Month to date cooling degree days 0 0  
Year to date cooling degree days 0 0  
Moisture  
Dew Point 32 °F    
Average Humidity 85    
Maximum Humidity 100    
Minimum Humidity 70    
Precipitation  
Precipitation 0.00 in 0.19 in 2.70 in (1958)
Month to date precipitation 1.22 2.94  
Year to date precipitation 9.34 9.81  
Snow  
Snow 0.00 in - - ()
Month to date snowfall 0.0  
Since 1 July snowfall 0.0  
Snow Depth 0.00 in    
Sea Level Pressure  
Sea Level Pressure 30.36 in    
Wind  
Wind Speed 4 mph (South)    
Max Wind Speed 8 mph    
Max Gust Speed 13 mph    
Visibility 6 miles    
Events Fog    
T = Trace of Precipitation, MM = Missing Value Source: NWS Daily Summary

Daily Weather History Graph

Daily Weather History Graph

Search for Another Location

Airport or City:

Trip Planner

Search our weather history database for the weather conditions in past years. The results will help you decide how hot, cold, wet, or windy it might be!

Date:

Astronomy

Feb. 15, 2012 Rise Set
Actual Time 7:12 AM PST 5:41 PM PST
Civil Twilight 6:43 AM PST 6:11 PM PST
Nautical Twilight 6:09 AM PST 6:45 PM PST
Astronomical Twilight 5:35 AM PST 7:19 PM PST
Moon 2:18 AM PST (2/15) 11:35 AM PST (2/15)
Length of Visible Light 11h 28m
Length of Day
10h 29m
Last Quarter, 38% of the Moon is Illuminated
Feb 15
Last Quarter
Feb 21
New
Feb 29
First Quarter
Mar 8
Full
Mar 14
Last Quarter

Hourly Weather History & Observations

Time (PST) Temp. Windchill Dew Point Humidity Pressure Visibility Wind Dir Wind Speed Gust Speed Precip Events Conditions
12:54 AM 35.1 °F 32.2 °F 33.1 °F 92% 30.28 in 10.0 mi SW 3.5 mph - N/A   Overcast
1:54 AM 33.1 °F 26.9 °F 32.0 °F 96% 30.28 in 9.0 mi SE 6.9 mph - N/A   Scattered Clouds
2:54 AM 35.1 °F 32.2 °F 33.1 °F 92% 30.31 in 10.0 mi WSW 3.5 mph - N/A   Overcast
3:54 AM 33.1 °F 28.7 °F 30.9 °F 92% 30.31 in 10.0 mi SSE 4.6 mph - N/A   Scattered Clouds
4:54 AM 30.9 °F 26.2 °F 30.0 °F 96% 30.30 in 10.0 mi South 4.6 mph - N/A   Partly Cloudy
5:54 AM 30.9 °F 26.2 °F 28.9 °F 92% 30.33 in 7.0 mi WSW 4.6 mph - N/A Fog Shallow Fog
6:54 AM 28.9 °F 21.9 °F 28.0 °F 96% 30.32 in 6.0 mi SW 6.9 mph - N/A Fog Partly Cloudy
6:57 AM 30.2 °F 23.4 °F 28.4 °F 93% 30.31 in 0.2 mi SW 6.9 mph - N/A Fog Scattered Clouds
7:01 AM 30.2 °F 22.6 °F 28.4 °F 93% 30.31 in 0.2 mi SW 8.1 mph - N/A Fog Light Freezing Fog
7:15 AM 30.2 °F 23.4 °F 30.2 °F 100% 30.32 in 0.5 mi SW 6.9 mph - N/A Fog Light Freezing Fog
7:35 AM 30.2 °F 24.3 °F 30.2 °F 100% 30.34 in 0.1 mi SW 5.8 mph - N/A Fog Light Freezing Fog
7:54 AM 30.9 °F - 30.0 °F 96% 30.37 in 0.1 mi Calm Calm - N/A Fog Light Freezing Fog
8:11 AM 30.2 °F 26.7 °F 28.4 °F 93% 30.36 in 0.1 mi East 3.5 mph - N/A Fog Light Freezing Fog
8:28 AM 30.2 °F - 30.2 °F 100% 30.37 in 0.5 mi Calm Calm - N/A Fog Light Freezing Fog
8:40 AM 32.0 °F 28.7 °F 30.2 °F 93% 30.37 in 1.0 mi SE 3.5 mph - N/A Fog Mostly Cloudy
8:54 AM 32.0 °F 28.7 °F 30.9 °F 96% 30.40 in 1.0 mi South 3.5 mph - N/A   Overcast
9:20 AM 32.0 °F - 30.2 °F 93% 30.39 in 0.5 mi Calm Calm - N/A Fog Fog
9:29 AM 32.0 °F 27.5 °F 32.0 °F 100% 30.39 in 0.2 mi SE 4.6 mph - N/A Fog Fog
9:40 AM 33.8 °F 28.6 °F 33.8 °F 100% 30.40 in 0.2 mi ESE 5.8 mph - N/A Fog Fog
9:54 AM 33.8 °F 29.6 °F 33.8 °F 100% 30.39 in 0.5 mi East 4.6 mph - N/A Fog Fog
10:17 AM 35.6 °F 31.7 °F 33.8 °F 93% 30.40 in 0.5 mi ESE 4.6 mph - N/A Fog Fog
10:29 AM 35.6 °F 32.8 °F 33.8 °F 93% 30.40 in 1.5 mi ESE 3.5 mph - N/A   Overcast
10:47 AM 35.6 °F - 35.6 °F 100% 30.40 in 2.5 mi Calm Calm - N/A   Overcast
10:54 AM 36.0 °F 32.1 °F 35.1 °F 97% 30.42 in 3.0 mi East 4.6 mph - N/A   Overcast
11:54 AM 37.9 °F 35.5 °F 35.1 °F 89% 30.41 in 7.0 mi ESE 3.5 mph - N/A   Mostly Cloudy
12:39 PM 39.2 °F - 35.6 °F 87% 30.39 in 10.0 mi Calm Calm - N/A   Mostly Cloudy
12:54 PM 43.0 °F - 36.0 °F 76% 30.40 in 10.0 mi Calm Calm - N/A   Scattered Clouds
1:54 PM 45.0 °F - 35.1 °F 68% 30.38 in 10.0 mi Calm Calm - N/A   Scattered Clouds
2:54 PM 45.0 °F 43.5 °F 36.0 °F 71% 30.37 in 10.0 mi Variable 3.5 mph - N/A   Mostly Cloudy
3:21 PM 46.4 °F 45.2 °F 35.6 °F 66% 30.35 in 10.0 mi North 3.5 mph - N/A   Scattered Clouds
3:54 PM 45.0 °F 41.2 °F 35.1 °F 68% 30.36 in 10.0 mi North 6.9 mph - N/A   Mostly Cloudy
4:17 PM 44.6 °F 43.1 °F 35.6 °F 71% 30.34 in 10.0 mi North 3.5 mph - N/A   Scattered Clouds
4:54 PM 45.0 °F 42.6 °F 35.1 °F 68% 30.34 in 10.0 mi North 4.6 mph - N/A   Partly Cloudy
5:54 PM 39.0 °F 34.8 °F 34.0 °F 82% 30.35 in 10.0 mi NW 5.8 mph - N/A   Scattered Clouds
6:54 PM 37.0 °F - 33.1 °F 86% 30.36 in 10.0 mi Calm Calm - N/A   Partly Cloudy
7:54 PM 34.0 °F 31.0 °F 32.0 °F 92% 30.37 in 10.0 mi NNE 3.5 mph - N/A   Clear
8:54 PM 34.0 °F - 32.0 °F 92% 30.38 in 10.0 mi Calm Calm - N/A   Clear
9:54 PM 32.0 °F 27.5 °F 30.0 °F 92% 30.38 in 10.0 mi SW 4.6 mph - N/A   Clear
10:54 PM 32.0 °F 28.7 °F 30.0 °F 92% 30.38 in 10.0 mi SSW 3.5 mph - N/A   Clear
11:54 PM 33.1 °F 30.0 °F 30.9 °F 92% 30.37 in 10.0 mi West 3.5 mph - N/A   Partly Cloudy